Creek Data

    Home     View Charts     View Raw Data     Messages

ID Distance Battery Voltage Battery Current Internal Temp Internal Humidity External Temp Solar Input rssi snr Time Stamp Record
35111 15.0 3.99 -5 44 39 45 0 -80 8 03/16/2025 02:45 AM 16864
35110 15.0 3.99 -5 43 39 45 0 -80 8 03/16/2025 02:30 AM 16863
35109 15.0 3.99 -5 43 39 45 0.1 -80 7 03/16/2025 02:15 AM 16862
35108 15.0 4.05 -5 42 39 44 0 -80 7 03/16/2025 02:00 AM 16861
35107 15.0 3.99 -5 42 39 44 0.1 -80 8 03/16/2025 01:45 AM 16860
35106 15.0 3.99 -5 42 39 44 0.1 -79 8 03/16/2025 01:30 AM 16859
35105 15.0 4.00 -5 42 40 44 0 -79 8 03/16/2025 01:15 AM 16858
35104 15.0 4.00 -5 42 40 44 0 -79 8 03/16/2025 01:00 AM 16857
35103 0.0 4.05 -5 41 40 42 0 -80 8 03/16/2025 12:45 AM 16856
35102 0.0 4.00 -5 41 40 42 0.1 -81 8 03/16/2025 12:31 AM 16855
35101 15.1 4.00 -5 41 40 42 0 -81 8 03/16/2025 12:15 AM 16854
35100 15.1 4.05 -5 42 41 42 0.1 -81 8 03/16/2025 12:00 AM 16853
35099 0.0 4.00 -5 43 40 42 0.1 -83 8 03/15/2025 11:45 PM 16852
35098 0.0 4.00 -5 44 40 46 0 -81 7 03/15/2025 11:30 PM 16851
35097 0.0 4.00 -5 44 40 46 0 -81 8 03/15/2025 11:15 PM 16850
35096 0.0 4.05 -5 45 40 46 0.1 -81 7 03/15/2025 11:00 PM 16849
35095 0.0 4.00 -5 46 40 48 0 -81 8 03/15/2025 10:45 PM 16848
35094 15.1 4.01 -5 46 40 47 0 -80 7 03/15/2025 10:30 PM 16847
35093 0.0 4.06 -5 47 40 49 0 -80 8 03/15/2025 10:15 PM 16846
35092 15.0 4.01 -5 48 40 50 0 -79 8 03/15/2025 10:00 PM 16845
35091 0.0 4.06 -5 48 40 49 0 -81 8 03/15/2025 09:45 PM 16844
35090 15.1 4.01 -5 49 40 50 0 -80 7 03/15/2025 09:30 PM 16843
35089 0.0 4.06 -5 49 40 50 0.1 -80 7 03/15/2025 09:15 PM 16842
35088 0.0 4.01 -5 49 40 51 0 -81 8 03/15/2025 09:00 PM 16841
35087 0.0 4.01 -35 50 40 51 0 -81 7 03/15/2025 08:45 PM 16840